Location: Unspecified
(52.4292°N, 19.3359°E)
Time: 09:38:27
(UTC+02:00)

Tiros 1 - Pass Details

Date: 22 May 2024
Orbit: 624 x 657 km, 48.4° (Epoch: 22 June)

Event Time Altitude Azimuth Distance (km) Brightness Sun altitude
Rises 12:11:20 0° 206° (SSW) 2,963 10.9 57.6°
Reaches altitude 10° 12:14:14 10° 188° (S) 2,059 10.4 57.7°
Maximum altitude 12:17:31 19° 145° (SE) 1,568 10.0 57.8°
Drops below altitude 10° 12:20:48 10° 101° (E) 2,069 10.0 57.9°
Sets 12:23:44 0° 83° (E) 2,983 10.6 58.0°
